Location: Alfortville
(48.8058°N, 2.4204°E)
Time: 21:43:27
(UTC+00:00)

SR - Pass Details

Date: 24 April 2026
Orbit: 568 x 852 km, 66.7° (Epoch: 19 May)

Event Time Altitude Azimuth Distance (km) Brightness Sun altitude
Rises 22:19:00 0° 311° (NW) 3,346 ? -25.0°
Reaches altitude 10° 22:22:23 10° 290° (WNW) 2,445 ? -25.2°
Maximum altitude 22:25:34 16° 255° (WSW) 2,099 ? -25.4°
Enters shadow 22:27:13 14° 236° (SW) 2,206 ? -25.5°
